SCP
0 0 0 0 0 0 0 0 0 0 0 0 0 0 0 0 0 0 0 0 0 0 0 0 0 0 0 0 0 0 0 0 0 0 0 0 0 0 0 0 0 0 0
0 0 0 0 0 0 0 0 0 0 0 0 0 0 0 0 0 0 0 0 0 0 0 0 0 0 0 0 0 0 0 0 0 0 0 0 0 0 0 0 0 0 0
0 0 0 0 0 0 0 0 0 0 0 0 0 0 0 0 0 0 0 0 0 0 0 0 0 0 0 0 0 0 0 0 0 0 0 0 0 0 0 0 0 0 0
0 0 0 0 0 0 0 0 0 0 0 0 0 0 0 0 0 0 0 0 0 0 0 0 0 0 0 0 0 0 0 0 0 0 0 0 0 0 0 0 0 0 0
0 0 0 0 0 0 0 0 0 0 0 0 0 0 0 0 0 0 0 0 0 0 0 0 0 0 0 0 0 0 0 0 0 0 0 0 0 0 0 0 0 0 0
0 0 0 0 0 0 0 0 0 0 0 0 0 0 0 0 0 0 0 0 0 0 0 0 0 0 0 0 0 0 0 0 0 0 0 0 0 0 0 0 0 0 0
0 0 0 0 0 0 0 0 0 0 0 0 0 0 0 0 0 0 0 0 0 0 0 0 0 0 0 0 0 0 0 0 0 0 0 0 0 0 0 0 0 0 0
0 0 0 0 0 0 0 0 0 0 0 0 0 0 0 0 0 0 0 0 0 0 0 0 0 0 0 0 0 0 0 0 0 0 0 0 0 0 0 0 0 0 0
0 0 0 0 0 0 0 0 0 0 0 0 0 0 0 0 0 0 0 0 0 0 0 0 0 0 0 0 0 0 0 0 0 0 0 0 0 0 0 0 0 0 0
0 0 0 0 0 0 0 0 0 0 0 0 0 0 0 0 0 0 0 0 0 0 0 0 0 0 0 0 0 0 0 0 0 0 0 0 0 0 0 0 0 0 0
0 0 0 0 0 0 0 0 0 0 0 0 0 0 0 0 0 0 0 0 0 0 0 0 0 0 0 0 0 0 0 0 0 0 0 0 0 0 0 0 0 0 0
0 0 0 0 0 0 0 0 0 0 0 0 0 0 0 0 0 0 0 0 0 0 0 0 0 0 0 0 0 0 0 0 0 0 0 0 0 0 0 0 0 0 0
0 0 0 0 0 0 0 0 0 0 0 0 0 0 0 0 0 0 0 0 0 0 0 0 0 0 0 0 0 0 0 0 0 0 0 0 0 0 0 0 0 0 0
0 0 0 0 0 0 0 0 0 0 0 0 0 0 0 0 0 0 0 0 0 0 0 0 0 0 0 0 0 0 0 0 0 0 0 0 0 0 0 0 0 0 0
0 0 0 0 0 0 0 0 0 0 0 0 0 0 0 0 0 0 0 0 0 0 0 0 0 0 0 0 0 0 0 0 0 0 0 0 0 0 0 0 0 0 0
0 0 0 0 0 0 0 0 0 0 0 0 0 0 0 0 0 0 0 0 0 0 0 0 0 0 0 0 0 0 0 0 0 0 0 0 0 0 0 0 0 0 0
0 0 0 0 0 0 0 0 0 0 0 0 0 0 0 0 0 0 0 0 0 0 0 0 0 0 0 0 0 0 0 0 0 0 0 0 0 0 0 0 0 0 0
0 0 0 0 0 0 0 0 0 0 0 0 0 0 0 0 0 0 0 0 0 0 0 0 0 0 0 0 0 0 0 0 0 0 0 0 0 0 0 0 0 0 0
0 0 0 0 0 0 0 0 0 0 0 0 0 0 0 0 0 0 0 0 0 0 0 0 0 0 0 0 0 0 0 0 0 0 0 0 0 0 0 0 0 0 0
0 0 0 0 0 0 0 0 0 0 0 0 0 0 0 0 0 0 0 0 0 0 0 0 0 0 0 0 0 0 0 0 0 -0 -0 0 0 0 0 0 0 0 0
0 0 0 0 0 0 0 0 0 0 0 0 0 0 0 0 0 0 0 0 0 0 0 0 0 0 0 0 0 0 0 0 0 -0 -0 0 0 0 0 0 0 0 0
0 0 0 0 0 0 0 0 0 0 0 0 0 0 0 0 0 0 0 0 0 0 0 0 0 0 0 0 0 0 0 0 -0 -0 -0 0 0 0 0 0 0 0 0
0 0 0 0 0 0 0 0 0 0 0 0 0 0 0 0 0 0 0 0 0 0 0 0 0 0 0 0 0 0 0 0 -0 -0 -0 -0 0 0 0 0 0 -0 0
0 0 0 0 0 0 0 0 0 0 0 0 0 0 0 0 0 0 0 0 0 0 0 0 0 0 0 0 0 0 0 0 0 -0 -0 -0 -0 0 0 -0 -0 -0 0
0 0 0 0 0 0 0 0 0 0 0 0 0 0 0 0 0 0 0 0 0 0 0 0 0 0 0 0 0 0 0 0 0 -0 -0 -0 -0 0 0 -0 -0 0 0
0 0 0 0 0 0 0 0 0 0 0 0 0 0 0 0 0 0 0 0 0 0 0 0 0 0 0 0 0 0 0 0 -0 -0 -0 -0 -0 -0 0 0 -0 0 0
Wind_Speed_500mb
92 97 103 104 98 97 92 85 85 83 86 83 77 69 65 61 57 57 54 52 49 48 50 51 52 54 57 61 66 69 71 72 90 152 127 126 125 126 130 122 119 124 124
88 98 103 107 101 99 96 91 87 82 83 81 76 71 67 61 59 57 54 51 48 48 50 53 56 58 62 66 69 71 72 75 79 112 139 131 131 127 124 115 115 118 118
87 95 101 105 105 101 97 94 87 79 80 82 80 75 69 64 61 58 55 51 48 49 51 55 58 61 66 68 70 72 74 72 72 90 128 128 133 124 119 109 109 107 109
90 95 99 100 100 99 97 93 85 78 78 82 80 73 70 65 61 59 55 50 49 49 52 56 59 62 66 68 69 71 72 76 81 88 103 121 117 115 108 104 119 99 102
88 92 94 94 94 95 94 91 85 78 77 78 79 76 74 67 63 57 53 49 50 51 53 54 58 64 64 62 61 66 69 80 85 88 97 100 106 102 104 101 101 113 115
90 90 90 89 90 94 93 89 83 79 79 81 85 79 74 65 59 54 52 51 51 53 52 55 58 62 61 59 57 58 65 77 90 93 101 104 117 106 104 101 101 105 115
87 87 90 87 87 93 88 85 83 84 82 84 83 78 70 60 53 51 52 50 51 50 50 53 57 58 57 62 66 63 71 75 78 89 107 114 118 116 108 110 108 110 119
79 81 82 84 86 92 87 87 88 84 83 85 81 74 64 53 49 53 51 48 50 47 47 50 54 54 57 56 67 76 84 91 90 90 95 107 109 113 106 111 115 121 125
68 75 78 82 90 90 87 88 85 85 86 86 79 70 59 46 55 51 44 47 45 44 44 47 50 54 58 52 66 81 99 103 92 77 83 92 93 96 95 102 107 101 114
64 71 76 81 86 84 82 84 82 81 81 81 75 65 52 53 50 42 43 40 40 40 43 47 52 53 51 53 66 82 93 103 94 99 104 104 104 114 92 80 96 105 107
59 64 69 75 80 81 79 82 79 80 83 79 72 62 55 52 42 47 40 36 35 35 42 48 48 52 49 61 59 69 76 81 92 99 102 90 88 84 78 73 81 85 99
55 60 65 70 76 81 78 81 82 82 84 80 70 58 53 44 49 42 37 31 22 33 36 39 43 45 55 60 60 62 62 67 76 82 90 86 84 83 84 81 79 78 97
54 60 63 64 70 77 80 84 87 87 85 78 65 54 51 49 41 34 27 21 20 20 28 32 39 47 53 53 55 58 60 64 69 75 84 85 81 90 93 85 75 83 87
63 62 66 65 73 79 82 85 91 91 85 75 61 61 55 48 38 28 18 13 13 18 23 30 37 42 46 52 58 60 63 63 67 72 80 91 82 89 90 80 79 87 83
68 71 74 74 75 79 86 92 96 87 80 67 66 63 56 45 36 26 12 8 10 13 21 28 34 42 50 57 63 67 67 68 72 75 84 88 87 93 87 78 87 80 76
75 81 83 84 83 84 90 92 90 78 69 64 60 56 50 39 32 23 21 14 4 12 18 24 32 40 48 56 64 73 74 76 79 84 87 82 92 91 94 88 78 72 72
82 86 90 89 90 98 107 107 92 61 59 63 61 58 53 43 29 22 19 10 2 10 12 22 29 36 46 54 61 68 79 83 87 86 86 83 98 96 91 86 78 73 74
85 85 92 89 94 103 111 108 99 89 76 59 48 50 44 43 32 25 19 8 5 8 13 20 26 35 43 52 60 68 77 83 89 92 86 87 104 95 92 85 79 76 76
82 89 89 86 94 99 106 106 95 90 81 71 59 45 43 37 34 29 19 10 12 8 10 17 26 34 42 50 59 68 74 85 89 93 87 94 108 98 93 85 83 79 76
75 83 85 87 92 99 106 98 88 81 73 75 64 55 51 46 37 25 15 12 7 7 11 19 25 31 41 50 59 69 75 83 89 89 86 103 110 101 94 90 87 84 79
74 77 82 81 88 102 105 96 86 75 74 67 62 54 45 37 33 23 17 13 8 7 12 20 26 32 39 48 57 67 73 80 85 84 87 114 115 106 99 93 89 82 80
75 78 83 87 91 99 95 84 74 71 71 67 61 53 48 43 34 24 18 11 6 10 16 19 25 34 41 46 55 64 71 77 80 79 95 120 115 110 103 100 92 88 81
76 80 84 88 93 91 79 71 72 73 68 63 58 48 50 41 31 23 16 9 6 9 16 21 25 30 37 40 46 54 64 71 74 72 109 115 114 116 111 104 96 94 89
75 77 84 91 86 81 75 75 71 66 62 58 55 49 42 34 27 19 13 8 7 11 17 21 24 30 37 42 43 46 54 59 65 77 102 112 110 121 114 109 99 100 90
70 77 81 83 83 78 75 73 69 63 58 57 52 45 38 31 23 16 11 7 8 12 18 22 26 30 35 41 42 44 52 56 67 82 97 107 115 117 116 108 109 106 99
64 76 86 85 79 75 74 71 64 60 58 53 46 41 34 26 17 13 9 9 12 16 19 22 26 30 35 39 43 43 49 60 69 82 91 104 114 114 114 112 115 110 106
Wind_Direction_500mb
241 240 239 238 239 240 243 245 246 243 239 236 235 236 239 243 250 255 260 263 269 276 282 287 292 295 297 298 296 296 292 284 280 295 296 302 302 303 302 301 302 304 302
247 242 240 239 240 242 243 245 245 241 239 239 238 236 239 243 249 255 261 264 270 278 282 288 293 297 300 298 295 294 291 290 281 288 299 302 302 302 300 297 300 302 300
248 246 242 241 241 241 242 244 242 239 236 235 235 236 239 242 248 254 258 262 269 276 283 287 294 298 299 298 300 298 296 287 274 276 290 299 300 298 296 296 296 295 293
250 247 244 242 243 242 242 241 239 237 236 233 233 234 239 242 247 253 257 262 268 275 282 289 298 299 299 300 299 297 296 290 286 277 279 289 289 291 291 293 295 292 291
253 248 246 244 243 243 241 240 237 234 232 231 230 231 236 240 245 249 254 260 269 277 284 293 298 299 300 300 294 294 293 290 284 281 280 281 283 287 288 291 288 291 290
248 247 246 245 244 242 239 237 233 232 230 228 226 227 233 238 244 251 258 263 271 280 290 296 299 298 303 305 298 287 284 285 286 285 285 283 283 282 284 284 285 287 287
249 244 242 242 241 238 236 234 231 230 228 225 225 226 230 235 243 249 259 266 275 284 292 296 300 303 306 309 310 296 289 287 283 286 285 282 284 286 286 285 282 280 279
244 243 242 240 238 236 233 228 226 225 225 224 224 226 228 233 241 251 256 268 276 283 291 297 303 310 317 307 300 300 301 299 296 294 287 290 288 288 285 284 284 281 278
243 244 242 239 235 232 230 226 224 223 220 219 220 223 224 231 243 249 259 267 274 283 291 300 311 317 312 305 305 305 303 304 306 297 292 291 287 285 283 285 281 276 277
243 240 239 236 234 233 230 226 224 223 221 217 217 217 219 230 238 249 259 265 275 289 301 312 313 313 310 311 308 305 304 308 317 314 301 298 292 292 291 277 274 271 269
247 241 237 235 233 230 226 225 222 219 216 216 214 214 219 228 235 249 254 260 274 295 301 304 316 320 317 310 312 303 307 313 306 302 307 308 310 306 305 293 283 280 268
253 243 238 234 231 228 224 222 216 211 213 213 213 210 219 224 236 235 242 253 272 278 296 316 323 322 321 322 320 320 315 312 316 324 320 311 307 307 304 296 281 279 271
266 251 242 236 234 229 225 220 212 206 208 210 207 214 217 223 225 227 233 249 267 290 314 326 329 328 327 327 333 333 332 332 333 318 318 315 307 308 307 306 298 294 280
273 267 249 240 235 227 224 218 212 205 202 205 206 217 218 217 212 211 228 250 291 310 323 336 337 329 330 340 344 346 344 344 336 323 314 321 315 312 310 308 298 298 293
249 246 242 237 230 223 220 215 211 208 202 207 215 219 218 212 207 202 201 261 285 322 340 340 333 339 344 349 351 353 351 349 341 335 324 323 317 314 311 307 302 298 291
251 246 240 234 225 218 213 206 207 204 205 207 214 210 203 199 201 190 180 208 271 332 339 342 345 346 348 352 355 354 355 353 350 344 335 324 321 318 314 311 305 298 292
252 250 240 228 223 216 203 199 193 185 201 203 206 205 191 189 184 190 195 163 267 319 331 343 343 348 349 351 351 350 350 354 352 346 337 324 324 319 317 313 308 303 296
245 243 238 231 223 213 203 195 191 190 185 185 183 182 185 163 171 187 177 176 254 288 327 338 348 351 350 350 350 349 350 353 354 350 339 328 328 323 319 315 310 305 300
245 236 232 227 219 209 199 192 191 186 187 189 179 179 181 159 170 187 173 192 234 287 330 340 349 349 349 351 352 352 352 354 353 348 338 330 331 327 321 317 313 308 303
242 237 229 217 207 202 199 196 190 188 186 186 181 185 184 173 179 176 180 209 244 290 335 351 349 345 349 352 353 354 353 355 353 347 342 334 334 330 325 321 318 313 306
231 222 215 209 202 199 197 194 189 186 183 180 180 182 179 179 179 176 189 206 239 290 345 352 349 347 349 352 354 355 354 354 354 348 344 338 340 333 330 326 322 317 310
221 212 202 200 199 195 193 188 183 183 182 178 175 172 178 180 179 177 189 207 259 319 334 343 348 352 352 352 355 354 353 352 352 350 344 344 345 340 336 332 328 324 319
205 196 193 194 193 188 181 177 182 182 178 175 175 176 176 175 175 180 187 202 259 310 322 330 340 348 353 353 356 356 352 353 350 353 346 349 348 348 344 338 333 330 326
198 195 194 188 179 173 171 176 178 177 172 172 173 175 176 173 180 184 194 220 274 306 315 322 336 345 351 354 353 355 354 357 359 352 347 353 351 355 352 347 339 337 336
190 189 184 172 168 167 171 174 172 171 169 174 173 175 176 180 184 190 207 241 287 307 312 319 331 340 347 352 351 351 354 2 7 348 348 356 358 358 359 354 349 348 348
183 175 169 167 165 167 170 168 167 167 172 173 174 176 178 181 186 204 236 276 302 314 319 322 329 336 341 347 352 352 356 6 6 344 351 358 359 359 2 2 1 358 355
Wind_Speed_850mb
92 97 103 104 98 97 92 85 85 83 86 83 77 69 65 61 57 57 54 52 49 48 50 51 52 54 57 61 66 69 71 72 90 152 127 126 125 126 130 122 119 124 124
88 98 103 107 101 99 96 91 87 82 83 81 76 71 67 61 59 57 54 51 48 48 50 53 56 58 62 66 69 71 72 75 79 112 139 131 131 127 124 115 115 118 118
87 95 101 105 105 101 97 94 87 79 80 82 80 75 69 64 61 58 55 51 48 49 51 55 58 61 66 68 70 72 74 72 72 90 128 128 133 124 119 109 109 107 109
90 95 99 100 100 99 97 93 85 78 78 82 80 73 70 65 61 59 55 50 49 49 52 56 59 62 66 68 69 71 72 76 81 88 103 121 117 115 108 104 119 99 102
88 92 94 94 94 95 94 91 85 78 77 78 79 76 74 67 63 57 53 49 50 51 53 54 58 64 64 62 61 66 69 80 85 88 97 100 106 102 104 101 101 113 115
90 90 90 89 90 94 93 89 83 79 79 81 85 79 74 65 59 54 52 51 51 53 52 55 58 62 61 59 57 58 65 77 90 93 101 104 117 106 104 101 101 105 115
87 87 90 87 87 93 88 85 83 84 82 84 83 78 70 60 53 51 52 50 51 50 50 53 57 58 57 62 66 63 71 75 78 89 107 114 118 116 108 110 108 110 119
79 81 82 84 86 92 87 87 88 84 83 85 81 74 64 53 49 53 51 48 50 47 47 50 54 54 57 56 67 76 84 91 90 90 95 107 109 113 106 111 115 121 125
68 75 78 82 90 90 87 88 85 85 86 86 79 70 59 46 55 51 44 47 45 44 44 47 50 54 58 52 66 81 99 103 92 77 83 92 93 96 95 102 107 101 114
64 71 76 81 86 84 82 84 82 81 81 81 75 65 52 53 50 42 43 40 40 40 43 47 52 53 51 53 66 82 93 103 94 99 104 104 104 114 92 80 96 105 107
59 64 69 75 80 81 79 82 79 80 83 79 72 62 55 52 42 47 40 36 35 35 42 48 48 52 49 61 59 69 76 81 92 99 102 90 88 84 78 73 81 85 99
55 60 65 70 76 81 78 81 82 82 84 80 70 58 53 44 49 42 37 31 22 33 36 39 43 45 55 60 60 62 62 67 76 82 90 86 84 83 84 81 79 78 97
54 60 63 64 70 77 80 84 87 87 85 78 65 54 51 49 41 34 27 21 20 20 28 32 39 47 53 53 55 58 60 64 69 75 84 85 81 90 93 85 75 83 87
63 62 66 65 73 79 82 85 91 91 85 75 61 61 55 48 38 28 18 13 13 18 23 30 37 42 46 52 58 60 63 63 67 72 80 91 82 89 90 80 79 87 83
68 71 74 74 75 79 86 92 96 87 80 67 66 63 56 45 36 26 12 8 10 13 21 28 34 42 50 57 63 67 67 68 72 75 84 88 87 93 87 78 87 80 76
75 81 83 84 83 84 90 92 90 78 69 64 60 56 50 39 32 23 21 14 4 12 18 24 32 40 48 56 64 73 74 76 79 84 87 82 92 91 94 88 78 72 72
82 86 90 89 90 98 107 107 92 61 59 63 61 58 53 43 29 22 19 10 2 10 12 22 29 36 46 54 61 68 79 83 87 86 86 83 98 96 91 86 78 73 74
85 85 92 89 94 103 111 108 99 89 76 59 48 50 44 43 32 25 19 8 5 8 13 20 26 35 43 52 60 68 77 83 89 92 86 87 104 95 92 85 79 76 76
82 89 89 86 94 99 106 106 95 90 81 71 59 45 43 37 34 29 19 10 12 8 10 17 26 34 42 50 59 68 74 85 89 93 87 94 108 98 93 85 83 79 76
75 83 85 87 92 99 106 98 88 81 73 75 64 55 51 46 37 25 15 12 7 7 11 19 25 31 41 50 59 69 75 83 89 89 86 103 110 101 94 90 87 84 79
74 77 82 81 88 102 105 96 86 75 74 67 62 54 45 37 33 23 17 13 8 7 12 20 26 32 39 48 57 67 73 80 85 84 87 114 115 106 99 93 89 82 80
75 78 83 87 91 99 95 84 74 71 71 67 61 53 48 43 34 24 18 11 6 10 16 19 25 34 41 46 55 64 71 77 80 79 95 120 115 110 103 100 92 88 81
76 80 84 88 93 91 79 71 72 73 68 63 58 48 50 41 31 23 16 9 6 9 16 21 25 30 37 40 46 54 64 71 74 72 109 115 114 116 111 104 96 94 89
75 77 84 91 86 81 75 75 71 66 62 58 55 49 42 34 27 19 13 8 7 11 17 21 24 30 37 42 43 46 54 59 65 77 102 112 110 121 114 109 99 100 90
70 77 81 83 83 78 75 73 69 63 58 57 52 45 38 31 23 16 11 7 8 12 18 22 26 30 35 41 42 44 52 56 67 82 97 107 115 117 116 108 109 106 99
64 76 86 85 79 75 74 71 64 60 58 53 46 41 34 26 17 13 9 9 12 16 19 22 26 30 35 39 43 43 49 60 69 82 91 104 114 114 114 112 115 110 106
Wind_Direction_850mb
241 240 239 238 239 240 243 245 246 243 239 236 235 236 239 243 250 255 260 263 269 276 282 287 292 295 297 298 296 296 292 284 280 295 296 302 302 303 302 301 302 304 302
247 242 240 239 240 242 243 245 245 241 239 239 238 236 239 243 249 255 261 264 270 278 282 288 293 297 300 298 295 294 291 290 281 288 299 302 302 302 300 297 300 302 300
248 246 242 241 241 241 242 244 242 239 236 235 235 236 239 242 248 254 258 262 269 276 283 287 294 298 299 298 300 298 296 287 274 276 290 299 300 298 296 296 296 295 293
250 247 244 242 243 242 242 241 239 237 236 233 233 234 239 242 247 253 257 262 268 275 282 289 298 299 299 300 299 297 296 290 286 277 279 289 289 291 291 293 295 292 291
253 248 246 244 243 243 241 240 237 234 232 231 230 231 236 240 245 249 254 260 269 277 284 293 298 299 300 300 294 294 293 290 284 281 280 281 283 287 288 291 288 291 290
248 247 246 245 244 242 239 237 233 232 230 228 226 227 233 238 244 251 258 263 271 280 290 296 299 298 303 305 298 287 284 285 286 285 285 283 283 282 284 284 285 287 287
249 244 242 242 241 238 236 234 231 230 228 225 225 226 230 235 243 249 259 266 275 284 292 296 300 303 306 309 310 296 289 287 283 286 285 282 284 286 286 285 282 280 279
244 243 242 240 238 236 233 228 226 225 225 224 224 226 228 233 241 251 256 268 276 283 291 297 303 310 317 307 300 300 301 299 296 294 287 290 288 288 285 284 284 281 278
243 244 242 239 235 232 230 226 224 223 220 219 220 223 224 231 243 249 259 267 274 283 291 300 311 317 312 305 305 305 303 304 306 297 292 291 287 285 283 285 281 276 277
243 240 239 236 234 233 230 226 224 223 221 217 217 217 219 230 238 249 259 265 275 289 301 312 313 313 310 311 308 305 304 308 317 314 301 298 292 292 291 277 274 271 269
247 241 237 235 233 230 226 225 222 219 216 216 214 214 219 228 235 249 254 260 274 295 301 304 316 320 317 310 312 303 307 313 306 302 307 308 310 306 305 293 283 280 268
253 243 238 234 231 228 224 222 216 211 213 213 213 210 219 224 236 235 242 253 272 278 296 316 323 322 321 322 320 320 315 312 316 324 320 311 307 307 304 296 281 279 271
266 251 242 236 234 229 225 220 212 206 208 210 207 214 217 223 225 227 233 249 267 290 314 326 329 328 327 327 333 333 332 332 333 318 318 315 307 308 307 306 298 294 280
273 267 249 240 235 227 224 218 212 205 202 205 206 217 218 217 212 211 228 250 291 310 323 336 337 329 330 340 344 346 344 344 336 323 314 321 315 312 310 308 298 298 293
249 246 242 237 230 223 220 215 211 208 202 207 215 219 218 212 207 202 201 261 285 322 340 340 333 339 344 349 351 353 351 349 341 335 324 323 317 314 311 307 302 298 291
251 246 240 234 225 218 213 206 207 204 205 207 214 210 203 199 201 190 180 208 271 332 339 342 345 346 348 352 355 354 355 353 350 344 335 324 321 318 314 311 305 298 292
252 250 240 228 223 216 203 199 193 185 201 203 206 205 191 189 184 190 195 163 267 319 331 343 343 348 349 351 351 350 350 354 352 346 337 324 324 319 317 313 308 303 296
245 243 238 231 223 213 203 195 191 190 185 185 183 182 185 163 171 187 177 176 254 288 327 338 348 351 350 350 350 349 350 353 354 350 339 328 328 323 319 315 310 305 300
245 236 232 227 219 209 199 192 191 186 187 189 179 179 181 159 170 187 173 192 234 287 330 340 349 349 349 351 352 352 352 354 353 348 338 330 331 327 321 317 313 308 303
242 237 229 217 207 202 199 196 190 188 186 186 181 185 184 173 179 176 180 209 244 290 335 351 349 345 349 352 353 354 353 355 353 347 342 334 334 330 325 321 318 313 306
231 222 215 209 202 199 197 194 189 186 183 180 180 182 179 179 179 176 189 206 239 290 345 352 349 347 349 352 354 355 354 354 354 348 344 338 340 333 330 326 322 317 310
221 212 202 200 199 195 193 188 183 183 182 178 175 172 178 180 179 177 189 207 259 319 334 343 348 352 352 352 355 354 353 352 352 350 344 344 345 340 336 332 328 324 319
205 196 193 194 193 188 181 177 182 182 178 175 175 176 176 175 175 180 187 202 259 310 322 330 340 348 353 353 356 356 352 353 350 353 346 349 348 348 344 338 333 330 326
198 195 194 188 179 173 171 176 178 177 172 172 173 175 176 173 180 184 194 220 274 306 315 322 336 345 351 354 353 355 354 357 359 352 347 353 351 355 352 347 339 337 336
190 189 184 172 168 167 171 174 172 171 169 174 173 175 176 180 184 190 207 241 287 307 312 319 331 340 347 352 351 351 354 2 7 348 348 356 358 358 359 354 349 348 348
183 175 169 167 165 167 170 168 167 167 172 173 174 176 178 181 186 204 236 276 302 314 319 322 329 336 341 347 352 352 356 6 6 344 351 358 359 359 2 2 1 358 355